Regional Weather Roundup
Issued by NWS State College, PA

Home | Current Version | Previous Version | Text Only | Print | Product List | Glossary Off
Versions: 1 2 3 4 5 6 7 8 9 10 11 12 13 14 15 16 17 18 19 20 21 22 23 24 25 26 27 28 29 30 31 32 33 34 35 36 37 38 39 40 41 42 43 44 45 46 47 48 49 50

686
ASUS41 KCTP 231910
RWRCTP

REGIONAL WEATHER ROUNDUP
NATIONAL WEATHER SERVICE STATE COLLEGE PA
300 PM EDT FRI JUN 23 2017

Note: "fair" indicates few or no clouds below 12,000 feet with no
significant weather and/or obstructions to visibility.

* = STATION THAT DOES NOT REPORT PRECIPITATION /E.G. RAIN...SNOW...ETC/
    THUNDER OR FOG.

PAZ002>004-007>009-013>016-020>023-029>032-232000-
WESTERN PENNSYLVANIA

CITY           SKY/WX    TMP DP  RH WIND       PRES   REMARKS
ERIE           CLOUDY    74  71  91 S13       29.59S
MEADVILLE      LGT RAIN  70  70 100 SW13G20   29.65F
FRANKLIN*      CLOUDY    70  68  94 SW12      29.67F
NEW CASTLE     LGT RAIN  69  68  96 VRB3      29.68F
BEAVER COUNTY  RAIN      72  70  94 W8        29.71R
BUTLER*        CLOUDY    73  70  88 SW10G16   29.70F
PITTSBURGH INT LGT RAIN  73  72  96 SW15G22   29.70F FOG
PITTSBURGH     RAIN      74  70  87 SW7       29.69F FOG
INDIANA*       CLOUDY    73  73 100 W13G20    29.74F FOG
LATROBE        PTSUNNY   75  75 100 SW9       29.72F
WASHINGTON CO* PTSUNNY   73  70  88 SW15G23   29.72F
$$

PAZ004>006-010>012-017>019-024>028-033>037-041-042-045-046-049>053-232000-
CENTRAL PENNSYLVANIA

CITY           SKY/WX    TMP DP  RH WIND       PRES   REMARKS
BRADFORD       RAIN      70  70 100 VRB7      29.68F FOG
DUBOIS         RAIN      72  68  87 SW13G22   29.70S VSB 3/4
CLEARFIELD     CLOUDY    77  71  82 SW15G22   29.71S
JOHNSTOWN      LGT RAIN  68  68 100 W10       29.77F FOG
ALTOONA        PTSUNNY   77  74  90 W10       29.74F
STATE COLLEGE  LGT RAIN  73  72  94 SW7       29.71F
WILLIAMSPORT   CLOUDY    82  70  66 SW7       29.65F
SELINSGROVE    LGT RAIN  79  74  84 VRB3      29.68F
FT INDIANTOWN  PTSUNNY   84  75  74 SW13      29.69F
CAPITAL CITY   PTSUNNY   88  71  57 SW9G21    29.68F
HARRISBURG     PTSUNNY   87  72  60 SW12      29.67F
YORK           PTSUNNY   84  73  69 SW8       29.71F
$$

PAZ038>040-043-044-047-048-054-055-060>062-067>071-232000-
EASTERN PENNSYLVANIA

CITY           SKY/WX    TMP DP  RH WIND       PRES   REMARKS
SCRANTON       PTSUNNY   79  69  71 SW14G21   29.69F
MOUNT POCONO   CLOUDY    72  69  90 SW14G22   29.75F
ALLENTOWN      PTSUNNY   84  72  67 SW16G23   29.70F
QUAKERTOWN*    CLOUDY    81  73  78 SW8       29.72F
READING        PTSUNNY   87  75  67 SW12G18   29.69F HX  96
LANCASTER      PTSUNNY   87  73  62 SW20G25   29.70F
COATESVILLE    MOCLDY    84  75  74 VRB6G12   29.75F
POTTSTOWN      CLOUDY    82  74  76 SW8       29.73F
BLUE BELL      CLOUDY    82  73  74 SW12G18   29.73F
DOYLESTOWN     CLOUDY    80  72  76 SW9       29.71F
WILLOW GROVE   NOT AVBL
NORTH PHILA    PTSUNNY   86  73  65 SW16G23   29.73F
PHILADELPHIA   PTSUNNY   86  71  60 SW20G28   29.72F
$$




USA.gov is the U.S. government's official web portal to all federal, state and local government web resources and services.